Location: Newark
(49.8969°N, 3.3422°E)
Time: 00:32:17
(UTC+00:00)

A-11 Canister half - Pass Details

Date: 26 January 2020
Orbit: 1517 x 1683 km, 47.2° (Epoch: 24 February)

Event Time Altitude Azimuth Distance (km) Brightness Sun altitude
Exits shadow 02:42:59 38° 109° (ESE) 2,161 9.8 -45.0°
Drops below altitude 10° 02:48:07 10° 102° (ESE) 3,691 11.4 -44.3°
Sets 02:51:10 0° 101° (ESE) 4,684 12.1 -43.9°
